When you browse on this site, cookies collect data to enhance your experience and personalize the content and advertising you see.
Visit our Privacy Policy to learn more. By continuing to use the site, you agree to this use of cookies and data.
  • In Hungary
  • List of Countries
  • For 7 days
  • Water Temperature
  • Satellite Maps
  • Weather Map
  • News
  • Weather Widgets
  • user-avatar
    Login

    Hourly Weather Ontinyent

    Today, 19 January, Saturday

    Time Temperature Precipitation Wind Pressure Humidity
    00:00 +4°C° 0 mm 4 mps 719 mmHg 50%
    01:00 +3°C° 0 mm 4 mps 719 mmHg 53%
    02:00 +3°C° 0 mm 4 mps 719 mmHg 57%
    03:00 +1°C° 0 mm 4 mps 719 mmHg 60%
    04:00 +1°C° 0 mm 4 mps 719 mmHg 64%
    05:00 +1°C° 0 mm 4 mps 719 mmHg 68%
    06:00 +1°C° 0 mm 5 mps 719 mmHg 73%
    07:00 +3°C° 0 mm 4 mps 719 mmHg 68%
    08:00 +4°C° 0 mm 4 mps 719 mmHg 64%
    09:00 +5°C° 0 mm 4 mps 719 mmHg 60%
    10:00 +6°C° 0 mm 4 mps 719 mmHg 54%
    11:00 +8°C° 0 mm 4 mps 720 mmHg 48%
    12:00 +11°C° 0 mm 4 mps 720 mmHg 42%
    13:00 +12°C° 0 mm 4 mps 719 mmHg 41%
    14:00 +12°C° 0 mm 4 mps 719 mmHg 40%
    15:00 +12°C° 0 mm 3 mps 718 mmHg 39%
    16:00 +11°C° 0 mm 3 mps 718 mmHg 44%
    17:00 +9°C° 0 mm 3 mps 717 mmHg 50%
    18:00 +7°C° 0 mm 2 mps 717 mmHg 55%
    19:00 +7°C° 0.1 mm 2 mps 717 mmHg 59%
    20:00 +7°C° 0.1 mm 2 mps 716 mmHg 62%
    21:00 +7°C° 0.1 mm 2 mps 716 mmHg 65%
    22:00 +7°C° 1 mm 2 mps 716 mmHg 71%
    23:00 +7°C° 1 mm 2 mps 715 mmHg 77%

    Tomorrow, 20 January, Sunday

    Time Temperature Precipitation Wind Pressure Humidity
    00:00 +7°C° 1 mm 2 mps 715 mmHg 84%
    01:00 +7°C° 0.1 mm 3 mps 715 mmHg 84%
    02:00 +7°C° 0.1 mm 3 mps 714 mmHg 84%
    03:00 +6°C° 0.1 mm 4 mps 714 mmHg 84%
    04:00 +6°C° 0 mm 4 mps 713 mmHg 85%
    05:00 +6°C° 0 mm 4 mps 713 mmHg 86%
    06:00 +6°C° 0 mm 4 mps 713 mmHg 87%
    07:00 +7°C° 0 mm 4 mps 713 mmHg 84%
    08:00 +8°C° 0 mm 5 mps 713 mmHg 82%
    09:00 +9°C° 0 mm 5 mps 714 mmHg 79%
    10:00 +9°C° 0.1 mm 5 mps 714 mmHg 79%
    11:00 +9°C° 0.1 mm 5 mps 714 mmHg 80%
    12:00 +9°C° 0.1 mm 5 mps 714 mmHg 80%
    13:00 +8°C° 0.1 mm 4 mps 714 mmHg 79%
    14:00 +8°C° 0.1 mm 4 mps 714 mmHg 78%
    15:00 +9°C° 0.1 mm 3 mps 714 mmHg 77%
    16:00 +8°C° 0 mm 3 mps 715 mmHg 82%
    17:00 +7°C° 0 mm 2 mps 715 mmHg 87%
    18:00 +6°C° 0 mm 2 mps 716 mmHg 91%
    19:00 +6°C° 0 mm 2 mps 716 mmHg 89%
    20:00 +5°C° 0 mm 3 mps 717 mmHg 86%
    21:00 +5°C° 0 mm 3 mps 718 mmHg 84%
    22:00 +4°C° 0 mm 3 mps 718 mmHg 84%
    23:00 +4°C° 0 mm 3 mps 718 mmHg 84%

    Day after tomorrow, 21 January, Monday

    Time Temperature Precipitation Wind Pressure Humidity
    00:00 +4°C° 0 mm 2 mps 718 mmHg 84%
    01:00 +3°C° 0 mm 3 mps 719 mmHg 84%
    02:00 +2°C° 0 mm 3 mps 719 mmHg 84%
    03:00 +2°C° 0 mm 3 mps 719 mmHg 84%
    04:00 +2°C° 0 mm 3 mps 719 mmHg 83%
    05:00 +1°C° 0 mm 3 mps 719 mmHg 82%
    06:00 +2°C° 0 mm 2 mps 719 mmHg 82%
    07:00 +2°C° 0 mm 3 mps 720 mmHg 76%
    08:00 +3°C° 0 mm 3 mps 720 mmHg 71%
    09:00 +4°C° 0 mm 3 mps 721 mmHg 66%
    10:00 +7°C° 0 mm 3 mps 721 mmHg 60%
    11:00 +8°C° 0 mm 3 mps 721 mmHg 54%
    12:00 +9°C° 0 mm 3 mps 721 mmHg 48%
    13:00 +10°C° 0 mm 4 mps 721 mmHg 47%
    14:00 +10°C° 0 mm 4 mps 721 mmHg 46%
    15:00 +10°C° 0 mm 4 mps 721 mmHg 44%
    16:00 +8°C° 0 mm 4 mps 721 mmHg 48%
    17:00 +6°C° 0 mm 4 mps 721 mmHg 53%
    18:00 +5°C° 0 mm 4 mps 721 mmHg 57%
    19:00 +4°C° 0 mm 4 mps 721 mmHg 58%
    20:00 +4°C° 0 mm 4 mps 722 mmHg 59%
    21:00 +3°C° 0 mm 4 mps 722 mmHg 60%
    22:00 +3°C° 0 mm 4 mps 722 mmHg 62%
    23:00 +1°C° 0 mm 4 mps 722 mmHg 64%

    22 January, Tuesday

    Time Temperature Precipitation Wind Pressure Humidity
    00:00 +2°C° 0 mm 3 mps 722 mmHg 67%
    01:00 +1°C° 0 mm 3 mps 721 mmHg 68%
    02:00 +1°C° 0 mm 3 mps 721 mmHg 69%
    03:00 0°C° 0 mm 3 mps 721 mmHg 70%
    04:00 -1°C° 0 mm 4 mps 720 mmHg 70%
    05:00 -1°C° 0 mm 4 mps 720 mmHg 69%
    06:00 0°C° 0 mm 5 mps 720 mmHg 69%
    07:00 +1°C° 0 mm 6 mps 720 mmHg 65%
    08:00 +2°C° 0 mm 7 mps 720 mmHg 61%
    09:00 +4°C° 0 mm 8 mps 720 mmHg 57%
    10:00 +5°C° 0 mm 9 mps 719 mmHg 54%
    11:00 +6°C° 0 mm 10 mps 719 mmHg 50%
    12:00 +8°C° 0 mm 10 mps 718 mmHg 47%
    13:00 +7°C° 0.3 mm 10 mps 717 mmHg 49%
    14:00 +7°C° 0.3 mm 10 mps 716 mmHg 52%
    15:00 +7°C° 0.3 mm 10 mps 715 mmHg 54%
    16:00 +6°C° 0.1 mm 9 mps 715 mmHg 59%
    17:00 +6°C° 0.1 mm 8 mps 715 mmHg 63%
    18:00 +5°C° 0.1 mm 7 mps 714 mmHg 68%
    19:00 +5°C° 0 mm 7 mps 714 mmHg 66%
    20:00 +4°C° 0 mm 8 mps 714 mmHg 64%
    21:00 +2°C° 0 mm 8 mps 714 mmHg 62%
    22:00 +2°C° 0 mm 9 mps 714 mmHg 63%
    23:00 +2°C° 0 mm 10 mps 713 mmHg 64%

    23 January, Wednesday

    Time Temperature Precipitation Wind Pressure Humidity
    00:00 +2°C° 0 mm 11 mps 713 mmHg 65%
    01:00 +2°C° 0 mm 11 mps 713 mmHg 66%
    02:00 +1°C° 0 mm 11 mps 712 mmHg 67%
    03:00 +1°C° 0 mm 11 mps 712 mmHg 68%
    04:00 +1°C° 0 mm 11 mps 712 mmHg 67%
    05:00 +1°C° 0 mm 11 mps 712 mmHg 65%
    06:00 -1°C° 0 mm 11 mps 712 mmHg 64%
    07:00 0°C° 0 mm 12 mps 712 mmHg 61%
    08:00 0°C° 0 mm 12 mps 712 mmHg 57%
    09:00 +1°C° 0 mm 13 mps 712 mmHg 54%
    10:00 +3°C° 0 mm 12 mps 712 mmHg 51%
    11:00 +4°C° 0 mm 12 mps 712 mmHg 48%
    12:00 +4°C° 0 mm 11 mps 712 mmHg 44%
    13:00 +3°C° 2.1 mm 9 mps 711 mmHg 56%
    14:00 +3°C° 2.1 mm 7 mps 710 mmHg 68%
    15:00 +3°C° 2.1 mm 4 mps 708 mmHg 80%
    16:00 +1°C° 1.2 mm 4 mps 709 mmHg 80%
    17:00 0°C° 1.2 mm 4 mps 709 mmHg 80%
    18:00 0°C° 1.2 mm 3 mps 709 mmHg 81%
    19:00 -2°C° 0 mm 4 mps 709 mmHg 76%
    20:00 -3°C° 0 mm 6 mps 710 mmHg 71%
    21:00 -4°C° 0 mm 7 mps 711 mmHg 66%
    22:00 -4°C° 0 mm 7 mps 711 mmHg 66%
    23:00 -4°C° 0 mm 7 mps 711 mmHg 67%

    24 January, Thursday

    Time Temperature Precipitation Wind Pressure Humidity
    00:00 -6°C° 0 mm 7 mps 712 mmHg 67%
    01:00 -6°C° 0 mm 7 mps 712 mmHg 67%
    02:00 -5°C° 0 mm 6 mps 712 mmHg 67%
    03:00 -6°C° 0 mm 6 mps 712 mmHg 66%
    04:00 -6°C° 0 mm 6 mps 712 mmHg 67%
    05:00 -7°C° 0 mm 5 mps 712 mmHg 68%
    06:00 -7°C° 0 mm 5 mps 712 mmHg 69%
    07:00 -5°C° 0 mm 4 mps 712 mmHg 66%
    08:00 -4°C° 0 mm 4 mps 713 mmHg 62%
    09:00 -2°C° 0 mm 3 mps 714 mmHg 59%
    10:00 0°C° 0 mm 3 mps 714 mmHg 57%
    11:00 0°C° 0 mm 4 mps 714 mmHg 55%
    12:00 +3°C° 0 mm 4 mps 714 mmHg 54%
    13:00 +4°C° 0 mm 4 mps 714 mmHg 54%
    14:00 +3°C° 0 mm 5 mps 714 mmHg 55%
    15:00 +3°C° 0 mm 5 mps 714 mmHg 56%
    16:00 +1°C° 0 mm 5 mps 714 mmHg 61%
    17:00 0°C° 0 mm 4 mps 715 mmHg 66%
    18:00 -2°C° 0 mm 4 mps 715 mmHg 70%
    19:00 -2°C° 0 mm 3 mps 715 mmHg 71%
    20:00 -2°C° 0 mm 3 mps 716 mmHg 71%
    21:00 -3°C° 0 mm 2 mps 716 mmHg 72%
    22:00 -3°C° 0 mm 2 mps 716 mmHg 72%
    23:00 -3°C° 0 mm 2 mps 716 mmHg 72%
    Show more